Location: Kerb�bon
(47.7970°N, 3.3487°W)
Time: 12:15:43
(UTC+00:00)

Nadezhda 1 Rocket - Pass Details

Date: 12 May 2021
Orbit: 940 x 1006 km, 83.0° (Epoch: 18 June)

Event Time Altitude Azimuth Distance (km) Brightness Sun altitude
Exits shadow 21:43:57 22° 164° (SSE) 2,006 5.1 -16.2°
Maximum altitude 21:48:01 59° 93° (E) 1,131 4.1 -16.6°
Drops below altitude 10° 21:54:07 10° 16° (NNE) 2,724 6.9 -17.2°
Sets 21:56:39 0° 12° (NNE) 3,666 7.7 -17.4°
